Location: Gleizolles
(44.4833°N, 6.7667°E)
Time: 21:51:19
(UTC+00:00)

Explorer 7 - Pass Details

Date: 24 June 2024
Orbit: 465 x 619 km, 50.3° (Epoch: 19 July)

Event Time Altitude Azimuth Distance (km) Brightness Sun altitude
Rises 13:18:37 0° 292° (WNW) 2,605 10.5 60.2°
Reaches altitude 10° 13:20:58 10° 301° (WNW) 1,694 9.6 59.9°
Maximum altitude 13:24:32 37° 10° (N) 764 7.8 59.4°
Drops below altitude 10° 13:28:00 10° 80° (E) 1,636 9.1 58.8°
Sets 13:30:14 0° 89° (E) 2,500 9.9 58.5°
